Погода в Уюке

Погода в Уюке : погода сейчас, прогноз погоды и архив. Всё, что Вы хотите узнать о погоде в Уюке!

Поиск расширенной информации на нашем сайте:

Другие новости

Новости СМИ2

Главная страница сайта

Новости сайта

03.07.2017

Напоминаем, что на нашем специализированном сайте Метеоцентр.Азия вы можете получить высокодетализированные автоматические прогнозы погоды по пунктам России, СНГ и мира в авиационном формате (включающие направление и скорость ветра, видимость, явления погоды, количество и форму облачности, нижнюю и верхнюю границу облачности).

Рекомендуем: мольберт детский

Погода в Уюке - сегодня

Время (UTC), дата Ветер
(°,м/с) 
Видим.   Явления Облачность Т
(°С)
Тd
(°С)
f(%) Тe
(°С)
Pmin
(гПа)
dP
(гПа)
Po
(мм)
O2
(г/м3)
Тmin Tmax R s Состояние
почвы
18 08.12.17 070 (В) 20000 м    10/0 средняя 
[Ac As]
+1.1 -4.1 68 1009.1  1.6  723  290    +2.4       
21 08.12.17 100 (В) 20000 м    9/0 средняя 
[Ac lent]
+0.5 -4.5 69 +1  1009.7  0.4  723  291           
00 09.12.17 150 (ЮВ) 20000 м    10/10 1000 м 
[Sc]
+1.9 -2.5 73 +3  1014.5  4.8  727  291           
09 09.12.17 240 (ЮЗ) 20000 м    9/0 средняя 
[Ac lent]
+6.8 -4.4 45 +4  1022  -1.2  733  288           
12 09.12.17 270 (З) 20000 м    9/0 средняя 
[Ac lent]
+4.9 -4.6 50 +3  1021.2  -1.2  732  290           
15 09.12.17 250 (З) 20000 м    10/10 1000 м 
[Sc]
+2.9 -3.6 62 1022.7  1.2  733  292    +6.8       
21 09.12.17 300 (СЗ) 10 км  слаб. снег  10/10 600 м 
[Ns]
-3.4 -7 76 -7  1030.5  3.4  737  302           
03 10.12.17 280 (З) 20000 м    4/0 верхняя 
[Ci sp]
-7.9 -12 72 -9  1036.1  1.8  741  308      равномерный
сухой снег
100% 
06 10.12.17 270 (З) 20000 м    3/0 верхняя 
[Ci sp]
-3.8 -10.7 59 -3  1035.4  0.1  741  304         
09 10.12.17 140 (ЮВ) 20000 м    8/0 средняя 
[Ac lent]
-0.6 -8.5 55 1033.5  -1.1  740  300           
12 10.12.17 180 (Ю) 20000 м    8/0 средняя 
[Ac lent]
-1.9 -7.2 67 -1  1033.2  -0.7  739  301           
15 10.12.17 180 (Ю) 20000 м    8/0 средняя, верхняя 
[Ac lent|Ci sp]
-5.2 -10.6 66 -5  1033.1  -0.6  739  304    -0.6       
18 10.12.17 290 (З) 20000 м    ясно 
-7.7 -12.7 67 -7  1032.1  -1.5  738  307    -0.6       
21 10.12.17 340 (С) 20000 м    ясно 
-9.3 -13.8 70 -9  1031.2  -0.9  737  309           
00 11.12.17 тихо ()   20000 м    10/0 средняя 
[As trans]
-11.2 -14.7 75 -11  1032.6  0.9  738  311           
06 11.12.17 тихо ()   20000 м    10/10 1000 м 
[Sc]
-6.8 -11.5 69 -7  1033.8  0.8  739  306           
09 11.12.17 090 (В) 20000 м    10/10 1000 м 
[Sc]
-6.1 -11 68 -8  1032.4  -1.1  738  305           
12 11.12.17 100 (В) 20000 м    10/10 1000 м 
[Sc]
-6.8 -11.5 69 -8  1032.7  0.1  738  306           
15 11.12.17 110 (В) 20000 м    10/10 1000 м 
[Sc]
-7.3 -11.6 71 -10  1032.3  -0.4  738  307    -6.1       
18 11.12.17 090 (В) 20000 м    10/10 1000 м 
[Sc]
-7.7 -11.7 73 -7  1031.8  -0.5  738  307    -6.1       
21 11.12.17 080 (В) 20000 м    10/10 1000 м 
[Sc]
-8.4 -12.1 75 -8  1031.5  -0.5  737  308           
00 12.12.17 120 (ЮВ) 20000 м    10/10 1000 м 
[Sc]
-8.5 -12.3 74 -8  1030.3  -1.1  737  307           
06 12.12.17 тихо ()   20000 м    10/10 1000 м 
[Sc]
-8.6 -12.4 74 -9  1032  0.8  738  308           
09 12.12.17 тихо ()   20000 м    10/10 1000 м 
[Sc]
-7.9 -12.5 69 -8  1031.9  -0.1  738  307           
12 12.12.17 200 (Ю) 20000 м    10/10 1000 м 
[Sc]
-8 -12.6 69 -8  1033.1  1.2  739  308           
Время (UTC), дата Ветер
(°,м/с) 
Видим.   Явления Облачность Т
(°С)
Тd
(°С)
f(%) Тe
(°С)
Pmin
(гПа)
dP
(гПа)
Po
(мм)
O2
(г/м3)
Тmin Tmax R s Состояние
почвы

Для получения пояснительной информации подведите курсор к названию столбца.

ПОГОДА в Уюке - архив

Всё, что Вы хотите узнать о погоде в Уюке - удобно и подробно!

Выберите нужную дату (начиная с 1 января 2015* года) и нажмите кнопку "Найти".
Будут отображены архивные сводки погоды по пункту Уюк, начиная с указанной даты.


Отображать данные в формате CSV (для использования в таблицах Excel)


Внимание! Наш архив погоды предназначен исключительно для личного некоммерческого использования в познавательных целях. Если Вам необходимы официальные справки о состоянии погоды (для производственных, юридических, коммерческих и т.п. целей), обращайтесь в органы Росгидромета.

*Примечание: данная дата относится к архиву по метеостанциям СССР (Россия, СНГ, Балтия).
Архив по метеостанциям Зарубежной Европы и Азии (кроме Китая) хранится 10 дней, по другим регионам земного шара (Китай, Африка, Америка, Австралия, Океания) - 1 день.

Уюк - район местоположения метеостанции


Название, широта, долгота, высота метеостанции:
Уюк 43.8°ш. 70.9°д. 366 м над ур. моря [Казахстан]

Дополнительная информация

В oтличие oт бoльшинства пoгoдных сайтoв мы публикуем пoдрoбную метеoинфoрмацию в детальнoм прoфессиoнальнoм фoрмате.

Характеристики температуры и влажнoсти вoздуха измеряются на высoте 2 м в тени вдали oт зданий и деревьев.
Скoрoсть ветра измеряется на высoте 10 м (на урoвне рoста челoвека скoрoсть ветра ниже в 1.5-2 раза). Если метеoстанция нахoдится в гoрoде или в лесу, тo скoрoсть ветра занижена на 2-4 м/с пo сравнению с oткрытым местoм. Скoрoсть ветра над акватoриями крупных рек и oзёр, а также на вершинах хoлмoв на 2-5 м/с выше, чем в oбычных услoвиях.
Атмoсфернoе давление в разных тoчках местнoсти мoжет значительнo oтличаться oт давления на метеoстанции, в зависимoсти oт услoвий рельефа (при пoдъёме на 10 м давление пoнижается примернo на 1 мм рт.ст.).